Date,TemperatureHighF,TemperatureAvgF,TemperatureLowF,DewpointHighF,DewpointAvgF,DewpointLowF,HumidityHigh,HumidityAvg,HumidityLow,PressureMaxIn,PressureMinIn,WindSpeedMaxMPH,WindSpeedAvgMPH,GustSpeedMaxMPH,PrecipitationSumIn
2013-2-1,31.3,26.2,21.4,20.7,13.0,7.9,84,58,45,29.96,29.55,10,2,19,0.00
2013-2-2,28.0,23.4,15.4,20.7,13.5,6.3,89,67,47,30.04,29.76,6,1,10,0.00
2013-2-3,31.1,25.0,19.0,24.4,21.1,16.3,91,86,73,29.76,29.54,4,0,4,0.00
2013-2-4,29.7,24.8,18.7,21.6,14.5,10.9,80,65,54,29.76,29.65,8,1,12,0.00
2013-2-5,32.2,29.2,26.8,27.9,25.4,21.4,92,87,80,29.69,29.61,0,0,0,0.00
2013-2-6,39.7,30.7,24.6,28.9,24.7,16.2,94,80,58,30.08,29.65,10,1,14,0.00
2013-2-7,35.2,28.4,21.7,22.3,17.7,13.6,76,65,51,30.21,30.00,3,0,3,0.00
2013-2-8,34.5,32.4,-3.3,32.9,29.7,-5.1,95,91,73,30.00,29.43,10,1,14,0.00
2013-2-9,34.5,26.6,19.0,30.6,19.0,10.0,95,74,53,30.11,29.52,12,2,18,0.00
2013-2-10,46.2,26.1,13.3,22.1,14.2,8.6,83,63,34,30.21,30.03,6,0,11,0.00
2013-2-11,47.3,37.1,30.9,46.2,33.9,22.1,96,89,48,30.04,29.41,1,0,1,0.00
2013-2-12,45.1,37.6,30.0,32.0,27.5,23.9,78,67,57,29.73,29.57,8,2,14,0.00
2013-2-13,44.8,32.0,24.4,31.1,26.0,21.2,92,80,58,29.70,29.43,2,0,2,0.00
2013-2-14,47.8,36.6,28.9,36.0,30.5,27.1,95,80,57,29.75,29.46,6,0,6,0.00
2013-2-15,57.0,44.8,31.6,40.1,34.4,29.1,92,69,48,29.75,29.65,9,1,11,0.00
2013-2-16,38.8,33.0,28.2,31.8,26.9,14.0,94,79,55,29.73,29.51,9,1,14,0.00
2013-2-17,31.6,25.4,18.7,18.3,11.4,4.3,75,55,48,29.81,29.48,11,4,20,0.00
2013-2-18,36.5,25.9,17.2,18.5,11.5,5.0,64,55,43,30.04,29.81,9,2,17,0.00
2013-2-19,43.3,36.1,28.4,40.6,29.7,14.7,95,78,55,29.92,29.44,18,1,18,0.00
2013-2-20,33.6,27.8,22.8,26.6,16.8,12.2,76,63,54,29.78,29.51,10,4,16,0.00
2013-2-21,36.3,27.7,22.1,21.6,16.6,12.2,73,63,52,30.04,29.75,10,3,17,0.00
2013-2-22,38.3,29.8,20.5,28.8,21.8,14.5,85,73,60,30.13,29.96,5,0,5,0.00
2013-2-23,44.8,38.3,32.5,43.3,36.5,28.8,95,94,85,29.98,29.55,4,0,4,0.00
2013-2-24,45.7,36.6,28.0,39.4,31.1,21.0,96,81,64,29.77,29.52,10,1,21,0.00
2013-2-25,46.6,35.3,26.4,33.6,26.3,21.0,84,71,53,29.97,29.77,9,0,11,0.00
2013-2-26,46.0,35.6,26.2,34.7,29.9,22.5,94,80,62,29.98,29.52,11,1,14,0.00
2013-2-27,49.8,43.2,36.3,45.5,39.6,34.7,96,88,74,29.53,29.24,10,1,19,0.00
2013-2-28,46.2,40.5,33.4,37.9,33.5,28.4,88,77,55,29.41,29.32,9,1,11,0.00